TimeCET,TemperatureF,Dew PointF,Humidity,Sea Level PressureIn,VisibilityMPH,Wind Direction,Wind SpeedMPH,Gust SpeedMPH,PrecipitationIn,Events,Conditions,WindDirDegrees,DateUTC
12:00 AM,36,34,88,30.21,9,SE,4.5,,,,Partly Cloudy,130,2014-02-26 23:00:00
12:45 AM,35.6,32.0,87,30.21,-9999.0,SSE,3.5,-,N/A,,Clear,160,2014-02-26 23:45:00
1:00 AM,35,32,85,30.22,9,SSE,2.2,,,,Partly Cloudy,160,2014-02-27 00:00:00
1:45 AM,33.8,30.2,87,30.21,-9999.0,South,4.6,-,N/A,,Clear,180,2014-02-27 00:45:00
2:00 AM,33,31,87,30.22,7,South,4.5,,,,Partly Cloudy,180,2014-02-27 01:00:00
2:45 AM,33.8,32.0,93,30.21,-9999.0,South,4.6,-,N/A,,Clear,170,2014-02-27 01:45:00
3:00 AM,33,31,91,30.21,7,South,4.5,,,,Partly Cloudy,170,2014-02-27 02:00:00
3:45 AM,32.0,30.2,93,30.18,-9999.0,SE,4.6,-,N/A,,Clear,140,2014-02-27 02:45:00
4:00 AM,32,31,92,30.21,6,SE,4.5,,,,Partly Cloudy,140,2014-02-27 03:00:00
4:45 AM,33.8,32.0,93,30.18,-9999.0,SSE,2.3,-,N/A,,Clear,150,2014-02-27 03:45:00
5:00 AM,34,32,87,30.21,6,SSE,2.2,,,,Partly Cloudy,150,2014-02-27 04:00:00
5:15 AM,35.6,33.8,93,30.18,-9999.0,ESE,3.5,-,N/A,,Clear,120,2014-02-27 04:15:00
5:45 AM,35.6,33.8,93,30.18,5.0,SE,5.8,-,N/A,,Mostly Cloudy,130,2014-02-27 04:45:00
6:00 AM,36,34,87,30.20,5,SE,4.5,,,,Partly Cloudy,130,2014-02-27 05:00:00
6:15 AM,37.4,33.8,87,30.18,4.3,SE,5.8,-,N/A,,Mostly Cloudy,130,2014-02-27 05:15:00
6:45 AM,39.2,33.8,81,30.18,5.0,SE,6.9,-,N/A,,Mostly Cloudy,130,2014-02-27 05:45:00
7:00 AM,38,34,81,30.20,5,SE,6.7,,,,Partly Cloudy,130,2014-02-27 06:00:00
7:15 AM,37.4,33.8,87,30.21,5.0,South,4.6,-,N/A,,Mostly Cloudy,170,2014-02-27 06:15:00
7:45 AM,37.4,33.8,87,30.21,5.0,South,5.8,-,N/A,,Mostly Cloudy,170,2014-02-27 06:45:00
8:00 AM,37,33,81,30.22,5,South,4.5,,,,Partly Cloudy,170,2014-02-27 07:00:00
8:15 AM,39.2,33.8,81,30.21,5.0,SSE,9.2,-,N/A,,Mostly Cloudy,150,2014-02-27 07:15:00
8:45 AM,39.2,33.8,81,30.21,5.0,SE,10.4,-,N/A,,Mostly Cloudy,130,2014-02-27 07:45:00
9:00 AM,40,35,74,30.22,5,SE,11.2,,,,Partly Cloudy,130,2014-02-27 08:00:00
9:15 AM,41.0,35.6,81,30.21,5.0,SE,8.1,-,N/A,,Mostly Cloudy,140,2014-02-27 08:15:00
9:45 AM,42.8,37.4,81,30.21,5.0,SE,8.1,-,N/A,,Mostly Cloudy,140,2014-02-27 08:45:00
10:00 AM,43,36,70,30.21,5,SE,6.7,,,,Partly Cloudy,140,2014-02-27 09:00:00
10:15 AM,44.6,37.4,76,30.21,5.0,South,6.9,-,N/A,,Mostly Cloudy,170,2014-02-27 09:15:00
10:45 AM,44.6,39.2,81,30.21,5.0,SSE,5.8,-,N/A,,Mostly Cloudy,160,2014-02-27 09:45:00
11:00 AM,45,38,70,30.21,5,SSE,6.7,,,,Partly Cloudy,160,2014-02-27 10:00:00
11:15 AM,46.4,39.2,76,30.21,5.0,SSE,4.6,-,N/A,,Mostly Cloudy,150,2014-02-27 10:15:00
11:45 AM,50.0,39.2,66,30.18,6.2,SSE,6.9,-,N/A,,Mostly Cloudy,150,2014-02-27 10:45:00
12:00 PM,49,39,58,30.19,7,SSE,6.7,,,,Partly Cloudy,150,2014-02-27 11:00:00
12:15 PM,51.8,39.2,62,30.18,6.2,SSE,8.1,-,N/A,,Mostly Cloudy,150,2014-02-27 11:15:00
12:45 PM,51.8,37.4,58,30.15,6.2,SSE,8.1,-,N/A,,Mostly Cloudy,150,2014-02-27 11:45:00
1:00 PM,52,37,46,30.17,9,SSE,8.9,,,,Partly Cloudy,150,2014-02-27 12:00:00
1:15 PM,51.8,37.4,58,30.15,6.2,SSE,9.2,-,N/A,,Mostly Cloudy,160,2014-02-27 12:15:00
1:45 PM,53.6,37.4,54,30.15,6.2,South,9.2,-,N/A,,Mostly Cloudy,170,2014-02-27 12:45:00
2:00 PM,54,37,42,30.15,9,South,8.9,,,,Partly Cloudy,170,2014-02-27 13:00:00
2:15 PM,53.6,37.4,54,30.15,6.2,South,9.2,-,N/A,,Mostly Cloudy,170,2014-02-27 13:15:00
2:45 PM,55.4,39.2,54,30.12,6.2,South,6.9,-,N/A,,Mostly Cloudy,180,2014-02-27 13:45:00
3:00 PM,55,38,42,30.13,9,South,6.7,,,,Partly Cloudy,180,2014-02-27 14:00:00
3:15 PM,55.4,35.6,47,30.12,6.2,SSE,6.9,-,N/A,,Mostly Cloudy,160,2014-02-27 14:15:00
3:45 PM,55.4,37.4,51,30.09,6.2,SSE,5.8,-,N/A,,Overcast,160,2014-02-27 14:45:00
4:00 PM,55,36,38,30.11,9,SSE,4.5,,,,Partly Cloudy,160,2014-02-27 15:00:00
4:15 PM,53.6,37.4,54,30.09,6.2,SSE,5.8,-,N/A,,Overcast,160,2014-02-27 15:15:00
4:45 PM,53.6,39.2,58,30.09,6.2,South,3.5,-,N/A,,Overcast,180,2014-02-27 15:45:00
5:00 PM,53,38,46,30.10,9,South,4.5,,,,Partly Cloudy,180,2014-02-27 16:00:00
5:15 PM,50.0,39.2,66,30.09,-9999.0,SE,4.6,-,N/A,,Clear,140,2014-02-27 16:15:00
5:45 PM,50.0,39.2,66,30.09,-9999.0,ESE,5.8,-,N/A,,Clear,110,2014-02-27 16:45:00
6:00 PM,50,40,58,30.09,9,ESE,4.5,,,,Partly Cloudy,110,2014-02-27 17:00:00
6:15 PM,48.2,39.2,71,30.09,-9999.0,ESE,4.6,-,N/A,,Clear,120,2014-02-27 17:15:00
6:45 PM,48.2,39.2,71,30.09,-9999.0,SE,5.8,-,N/A,,Clear,130,2014-02-27 17:45:00
7:00 PM,48,40,65,30.09,9,SE,6.7,,,,Partly Cloudy,130,2014-02-27 18:00:00
7:15 PM,46.4,39.2,76,30.06,-9999.0,SE,6.9,-,N/A,,Clear,130,2014-02-27 18:15:00
7:45 PM,44.6,37.4,76,30.06,-9999.0,SE,5.8,-,N/A,,Clear,140,2014-02-27 18:45:00
8:00 PM,44,37,69,30.09,9,SE,6.7,,,,Partly Cloudy,140,2014-02-27 19:00:00
8:15 PM,42.8,37.4,81,30.06,-9999.0,SE,6.9,-,N/A,,Clear,140,2014-02-27 19:15:00
8:45 PM,44.6,39.2,81,30.06,-9999.0,SE,5.8,-,N/A,,Clear,140,2014-02-27 19:45:00
9:00 PM,44,39,75,30.08,9,SE,6.7,,,,Partly Cloudy,140,2014-02-27 20:00:00
9:45 PM,44.6,37.4,76,30.06,-9999.0,SSE,4.6,-,N/A,,Clear,150,2014-02-27 20:45:00
10:00 PM,45,38,69,30.07,9,SSE,4.5,,,,Partly Cloudy,150,2014-02-27 21:00:00
10:45 PM,42.8,37.4,81,30.06,-9999.0,SSE,3.5,-,N/A,,Clear,150,2014-02-27 21:45:00
11:00 PM,44,37,70,30.06,9,SSE,4.5,,,,Partly Cloudy,150,2014-02-27 22:00:00
11:45 PM,42.8,37.4,81,30.04,-9999.0,SE,3.5,-,N/A,,Clear,140,2014-02-27 22:45:00